This is the latest recevied weather packets stored in our database for station/object W3EJE-13. If no packets are shown the sender has not sent any weather packets the latest 10 day(s).
| Time | Temp. | Humidity | Pressure | Rain* | Wind** | Luminosity | Snow |
|---|---|---|---|---|---|---|---|
| 1777683047 | 6.67° C | 93% | 1013.9 hPa | 0 mm | - | 0 W/m² | - |
| 1777682742 | 6.67° C | 93% | 1013.7 hPa | 0 mm | - | 0 W/m² | - |
| 1777682439 | 6.67° C | 93% | 1013.5 hPa | 0 mm | - | 0 W/m² | - |
| 1777682138 | 6.67° C | 93% | 1013.7 hPa | 0 mm | - | 0 W/m² | - |
| 1777681834 | 6.67° C | 94% | 1013.4 hPa | 0 mm | - | 0 W/m² | - |
| 1777681530 | 7.22° C | 94% | 1013.6 hPa | 0 mm | - | 0 W/m² | - |
| 1777681228 | 7.22° C | 94% | 1013.5 hPa | 1.27 mm | - | 0 W/m² | - |
| 1777680925 | 7.22° C | 94% | 1013.5 hPa | 0 mm | - | 0 W/m² | - |
| 1777680622 | 7.22° C | 94% | 1013.4 hPa | 0 mm | - | 0 W/m² | - |
| 1777680321 | 7.22° C | 94% | 1013.6 hPa | 0 mm | - | 0 W/m² | - |
| 1777680017 | 7.22° C | 93% | 1013.5 hPa | 0 mm | - | 0 W/m² | - |
| 1777679713 | 7.22° C | 93% | 1013.5 hPa | 0 mm | - | 0 W/m² | - |
| 1777679409 | 7.78° C | 93% | 1013.5 hPa | 0 mm | - | 3 W/m² | - |
| 1777679105 | 7.78° C | 91% | 1013.5 hPa | 0 mm | - | 3 W/m² | - |
| 1777678804 | 7.78° C | 90% | 1013.6 hPa | 0 mm | - | 1 W/m² | - |
| 1777678501 | 7.78° C | 90% | 1013.4 hPa | 0 mm | - | 2 W/m² | - |
| 1777678196 | 7.78° C | 89% | 1013.6 hPa | 0 mm | - | 3 W/m² | - |
| 1777677894 | 7.78° C | 89% | 1013.3 hPa | 0 mm | - | 4 W/m² | - |
| 1777677590 | 7.78° C | 89% | 1013.6 hPa | 0 mm | - | 21 W/m² | - |
| 1777677289 | 7.78° C | 87% | 1013.4 hPa | 0 mm | - | 15 W/m² | - |
| 1777676987 | 8.33° C | 87% | 1013.2 hPa | 0 mm | - | 35 W/m² | - |
| 1777676686 | 8.33° C | 84% | 1013.4 hPa | 0 mm | - | 51 W/m² | - |
| 1777676383 | 8.33° C | 83% | 1013.2 hPa | 0 mm | - | 15 W/m² | - |
| 1777676081 | 8.89° C | 81% | 1013.1 hPa | 0 mm | - | 17 W/m² | - |
| 1777675776 | 9.44° C | 77% | 1013.1 hPa | 0 mm | - | 62 W/m² | - |
* Rain latest hour (hover to see other rain measurements)
** Current wind speed in m/s (hover to see current wind gust speed)